Le nostre stazioni meteo in Italia

Pubblicità
Il mio iltempo24.it
Salsburgh, Gran Bretagna (99024): Temperatura & dewpoint: 17.05.2017 15:00:00 - 23.05.2017 15:00:00 (BST)Salsburgh, Gran Bretagna (99024): Temperatura 5cm: 17.05.2017 15:00:00 - 23.05.2017 15:00:00 (BST)Salsburgh, Gran Bretagna (99024): velocità del vento & gusts: 17.05.2017 15:00:00 - 23.05.2017 15:00:00 (BST)Salsburgh, Gran Bretagna (99024): direzione del vento: 17.05.2017 15:00:00 - 23.05.2017 15:00:00 (BST)Salsburgh, Gran Bretagna (99024): visibility: 17.05.2017 15:00:00 - 23.05.2017 15:00:00 (BST)Salsburgh, Gran Bretagna (99024): precipitazioni: 17.05.2017 15:00:00 - 23.05.2017 15:00:00 (BST)
Data & Tempo tt [°C] td [°C] tt 5cm [°C] ff [km/h] ff [kn] fx [km/h] fx [kn] dd vv [km] rr [mm]
23.05.2017 15:00:00 13,7 7,8 - 26 14 - - OSO - 0,0
23.05.2017 14:00:00 14,6 8,7 - 28 15 - - OSO - 0,0
23.05.2017 13:00:00 13,0 7,8 - 24 13 - - O - 0,0
23.05.2017 12:00:00 13,2 7,5 - 26 14 - - OSO - 0,0
23.05.2017 11:00:00 12,1 7,8 - 24 13 - - OSO - 0,0
23.05.2017 10:00:00 10,3 8,0 10,8 - - - - N 3,9 0,0
23.05.2017 09:00:00 9,6 9,0 - 21 11 - - SO - 0,0
23.05.2017 08:00:00 8,3 8,3 - 15 8 - - SO - 0,0
23.05.2017 07:00:00 8,0 8,0 - 15 8 - - SSO - 0,2
23.05.2017 06:00:00 6,9 6,9 - 11 6 - - SO - 0,0
23.05.2017 05:00:00 6,7 6,7 - 13 7 - - SO - 0,0
23.05.2017 04:00:00 6,5 6,5 - 11 6 - - SSO - 0,0
23.05.2017 03:00:00 6,8 6,7 - 11 6 - - SO - 0,0
23.05.2017 02:00:00 6,0 5,9 - 16 9 - - SO - 0,0
23.05.2017 01:00:00 5,5 5,3 - 15 8 - - SO - 0,0
23.05.2017 00:00:00 5,7 5,4 - 13 7 - - OSO - 0,0
22.05.2017 23:00:00 6,8 6,5 - 13 7 - - OSO - 0,0
22.05.2017 22:00:00 8,0 7,8 - 16 9 - - OSO - 0,2
22.05.2017 21:00:00 8,1 7,5 - 34 18 54 29 O - 4,8
22.05.2017 20:00:00 11,3 9,7 - 31 17 55 30 SO - 0,6
22.05.2017 19:00:00 14,1 10,8 - 28 15 - - SSO - 0,0
22.05.2017 18:00:00 13,7 10,6 - 35 19 52 28 SSO - 0,0
22.05.2017 17:00:00 14,2 10,6 - 31 17 52 28 SSO - 0,0
22.05.2017 16:00:00 15,1 9,2 - 31 17 - - S - 0,0
22.05.2017 15:00:00 15,5 9,1 - 28 15 46 25 S - 0,0
22.05.2017 14:00:00 15,8 10,1 - 24 13 - - SSE - 0,0
22.05.2017 13:00:00 13,8 10,9 - 24 13 - - SSE - 0,0
22.05.2017 12:00:00 12,1 10,3 - 15 8 - - SE - 0,6
22.05.2017 11:00:00 11,1 9,9 - 13 7 - - ESE - 0,8
22.05.2017 10:00:00 11,5 9,0 - 13 7 - - SE 10 0,2
22.05.2017 09:00:00 11,6 8,3 - 15 8 - - SSE - 0,0
22.05.2017 08:00:00 11,4 8,0 - 16 9 - - SSE - 0,0
22.05.2017 07:00:00 11,2 7,9 - 16 9 - - S - 0,0
22.05.2017 06:00:00 9,6 7,2 - 16 9 - - SSE - 0,0
22.05.2017 05:00:00 9,4 6,9 - 15 8 - - SSE - 0,0
22.05.2017 04:00:00 9,5 7,3 - 11 6 - - ESE - 0,0
22.05.2017 03:00:00 9,3 6,8 - 16 9 - - ESE - 0,0
22.05.2017 02:00:00 9,8 7,1 - 16 9 - - ESE - 0,0
22.05.2017 01:00:00 8,2 6,8 - 16 9 - - E - 0,0
22.05.2017 00:00:00 8,7 7,3 - 15 8 - - SE - 0,0
21.05.2017 23:00:00 9,2 7,7 - 18 10 - - S - 0,0
21.05.2017 22:00:00 9,6 7,7 - 18 10 - - SSE - 0,0
21.05.2017 21:00:00 10,9 7,6 - 22 12 - - S - 0,0
21.05.2017 20:00:00 11,6 7,2 - 22 12 - - S - 0,0
21.05.2017 19:00:00 12,0 7,1 - 26 14 - - SSO - 0,0
21.05.2017 18:00:00 12,6 7,9 - 28 15 - - S - 0,0
21.05.2017 17:00:00 12,2 8,4 - 35 19 54 29 S - 0,0
21.05.2017 16:00:00 11,3 9,2 - 34 18 50 27 S - 0,4
21.05.2017 15:00:00 11,4 10,3 - 26 14 - - S - 0,4
21.05.2017 14:00:00 10,9 9,6 - 31 17 - - S - 0,6
21.05.2017 13:00:00 11,0 9,6 - 28 15 - - S - 0,0
21.05.2017 12:00:00 9,9 8,4 - 21 11 - - S - 0,2
21.05.2017 11:00:00 10,4 8,1 - 26 14 - - S - 0,4
21.05.2017 10:00:00 10,1 7,9 10,4 22 12 - - N 3,9 0,0
21.05.2017 09:00:00 9,6 7,8 - 21 11 - - S - 0,0
21.05.2017 08:00:00 8,2 7,4 - 21 11 - - S - 0,0
21.05.2017 07:00:00 7,5 6,9 - 22 12 - - S - 0,0
21.05.2017 06:00:00 6,4 5,9 - 18 10 - - S - 0,0
21.05.2017 05:00:00 6,5 5,9 - 15 8 - - SSE - 0,0
21.05.2017 04:00:00 6,0 5,3 - 15 8 - - S - 0,0
21.05.2017 03:00:00 6,7 5,8 - 16 9 - - SSE - 0,0
21.05.2017 02:00:00 6,5 5,2 - 16 9 - - S - 0,0
21.05.2017 01:00:00 5,9 4,7 - 13 7 - - SSE - 0,0
21.05.2017 00:00:00 7,3 5,9 - 21 11 - - S - 0,0
20.05.2017 23:00:00 7,7 6,3 - 16 9 - - S - 0,2
20.05.2017 22:00:00 8,4 6,4 - 21 11 - - SSO - 0,0
20.05.2017 21:00:00 9,3 6,3 - 24 13 - - SSO - 0,0
20.05.2017 20:00:00 11,2 6,0 - 24 13 - - SSO - 0,0
20.05.2017 19:00:00 11,1 6,4 - 26 14 - - SSO - 0,0
20.05.2017 18:00:00 11,6 5,9 - 28 15 - - OSO - 0,0
20.05.2017 17:00:00 11,5 7,0 - 28 15 - - OSO - 0,0
20.05.2017 16:00:00 10,3 8,3 - 21 11 - - OSO - 0,8
20.05.2017 15:00:00 9,4 8,5 - 21 11 - - SO - 1,4
20.05.2017 14:00:00 9,0 8,7 - 15 8 - - S - 2,4
20.05.2017 13:00:00 8,2 7,7 - 15 8 - - SSO - 2,4
20.05.2017 12:00:00 9,6 7,6 - 8 4 - - SO - 0,0
20.05.2017 11:00:00 8,9 8,5 - 11 6 - - SSO - 0,4
20.05.2017 10:00:00 8,3 7,5 8,5 - - - - N 17 0,6
20.05.2017 09:00:00 8,0 7,7 - 9 5 - - SSO - 0,2
20.05.2017 08:00:00 7,5 7,3 - 9 5 - - S - 0,4
20.05.2017 07:00:00 7,3 7,1 - 2 1 - - ESE - 0,6
20.05.2017 06:00:00 7,1 6,8 - 4 2 - - ENE - 0,8
20.05.2017 05:00:00 6,9 6,7 - 4 2 - - E - 0,8
20.05.2017 04:00:00 7,2 7,0 - 9 5 - - E - 0,6
20.05.2017 03:00:00 7,3 6,9 - 11 6 - - E - 0,4
20.05.2017 02:00:00 7,2 6,4 - 11 6 - - ENE - 0,0
20.05.2017 01:00:00 7,3 6,2 - 16 9 - - ENE - 0,0
20.05.2017 00:00:00 7,5 6,1 - 15 8 - - ENE - 0,0
19.05.2017 23:00:00 7,8 6,1 - 16 9 - - ENE - 0,0
19.05.2017 22:00:00 8,4 6,2 - 18 10 - - ENE - 0,0
19.05.2017 21:00:00 9,7 7,3 - 15 8 - - ENE - 0,0
19.05.2017 20:00:00 10,5 6,8 - 16 9 - - E - 0,0
19.05.2017 19:00:00 11,8 6,3 - 22 12 - - E - 0,0
19.05.2017 18:00:00 12,0 5,5 - 21 11 - - E - 0,0
19.05.2017 17:00:00 12,7 6,0 - 21 11 - - E - 0,0
19.05.2017 16:00:00 14,4 6,1 - 16 9 - - E - 0,0
19.05.2017 15:00:00 13,4 4,4 - 8 4 - - E - 0,0
19.05.2017 14:00:00 13,2 4,7 - 9 5 - - N - 0,0
19.05.2017 13:00:00 12,8 5,1 - 5 3 - - N - 0,0
19.05.2017 12:00:00 12,1 5,4 - 5 3 - - NO - 0,0
19.05.2017 11:00:00 10,8 6,1 - 5 3 - - OSO - 0,0
19.05.2017 10:00:00 9,5 5,1 9,8 104 56 - - N 3,1 0,0
19.05.2017 09:00:00 8,7 5,6 - 8 4 - - O - 0,0
19.05.2017 08:00:00 7,8 5,6 - 8 4 - - SSO - 0,0
19.05.2017 07:00:00 6,2 4,7 - 11 6 - - S - 0,0
19.05.2017 06:00:00 5,2 3,7 - 13 7 - - SSE - 0,0
19.05.2017 05:00:00 5,8 4,2 - 13 7 - - SSE - 0,0
19.05.2017 04:00:00 5,4 4,4 - 11 6 - - SSE - 0,0
19.05.2017 03:00:00 5,5 4,9 - 11 6 - - S - 0,0
19.05.2017 02:00:00 6,2 5,2 - 8 4 - - S - 0,0
19.05.2017 01:00:00 6,6 5,5 - 5 3 - - SSO - 0,0
19.05.2017 00:00:00 7,4 5,9 - 9 5 - - OSO - 0,0
18.05.2017 23:00:00 7,5 5,7 - 8 4 - - OSO - 0,0
18.05.2017 22:00:00 8,7 4,6 - 15 8 - - O - 0,0
18.05.2017 21:00:00 10,7 4,3 - 15 8 - - O - 0,0
18.05.2017 20:00:00 12,0 4,8 - 15 8 - - SSO - 0,0
18.05.2017 19:00:00 13,0 4,0 - 15 8 - - OSO - 0,0
18.05.2017 18:00:00 14,1 3,4 - 22 12 - - O - 0,0
18.05.2017 17:00:00 13,6 3,4 - 18 10 - - OSO - 0,0
18.05.2017 16:00:00 13,0 4,4 - 22 12 - - OSO - 0,0
18.05.2017 15:00:00 14,3 5,7 - 22 12 - - OSO - 0,0
18.05.2017 14:00:00 12,6 5,0 - 15 8 - - O - 0,0
18.05.2017 13:00:00 12,8 4,1 - 22 12 - - O - 0,0
18.05.2017 12:00:00 13,9 4,7 - 16 9 - - OSO - 0,0
18.05.2017 11:00:00 11,7 4,5 - 15 8 - - SO - 0,0
18.05.2017 10:00:00 11,4 6,8 11,4 11 6 - - SSO 5 0,0
18.05.2017 09:00:00 10,6 8,0 - 11 6 - - OSO - 0,0
18.05.2017 08:00:00 8,0 6,9 - 9 5 - - SO - 0,0
18.05.2017 07:00:00 7,6 7,2 - 9 5 - - SO - 0,0
18.05.2017 06:00:00 6,6 6,3 - 8 4 - - SSO - 0,0
18.05.2017 05:00:00 6,8 6,5 - 11 6 - - SO - 0,0
18.05.2017 04:00:00 6,8 6,3 - 8 4 - - S - 0,0
18.05.2017 03:00:00 7,7 7,0 - 9 5 - - SO - 0,0
18.05.2017 02:00:00 7,4 6,4 - 13 7 - - S - 0,0
18.05.2017 01:00:00 8,5 6,8 - 11 6 - - SO - 0,0
18.05.2017 00:00:00 9,1 7,2 - 15 8 - - SO - 0,0
17.05.2017 23:00:00 9,4 7,2 - 15 8 - - O - 0,0
17.05.2017 22:00:00 9,6 7,1 - 16 9 - - OSO - 0,0
17.05.2017 21:00:00 9,9 6,7 - 16 9 - - O - 0,0
17.05.2017 20:00:00 13,1 6,3 - 24 13 - - O - 0,0
17.05.2017 19:00:00 13,8 4,9 - 16 9 - - OSO - 0,0
17.05.2017 18:00:00 14,1 4,8 - 15 8 - - SO - 0,0
17.05.2017 17:00:00 14,5 6,6 - 15 8 - - OSO - 0,0
17.05.2017 16:00:00 13,7 6,8 - 18 10 - - SO - 0,0
17.05.2017 15:00:00 14,7 6,9 - 18 10 - - SSO - 0,0

tt = Temperatura
td = dewpoint
tt 5cm = Temperatura 5cm
ff = velocità del vento
fx = gusts
dd = direzione del vento
vv = visibility
rr = precipitazioni

Stazioni seguenti

WeatherPro
AMSI
MeteoEarth